This is the latest recevied weather packets stored in our database for station/object KB1RMA-13. If no packets are shown the sender has not sent any weather packets the latest 10 day(s).
| Time | Temp. | Humidity | Pressure | Rain* | Wind** | Luminosity | Snow |
|---|---|---|---|---|---|---|---|
| 1777810920 | 7.22° C | 90% | 1006.8 hPa | 0 mm | - | 446 W/m² | - |
| 1777810616 | 7.22° C | 90% | 1006.6 hPa | 0 mm | - | 127 W/m² | - |
| 1777810313 | 7.22° C | 91% | 1007 hPa | 0 mm | - | 103 W/m² | - |
| 1777810008 | 6.67° C | 91% | 1007 hPa | 0 mm | - | 128 W/m² | - |
| 1777809707 | 6.67° C | 91% | 1007.1 hPa | 0 mm | - | 66 W/m² | - |
| 1777809404 | 6.67° C | 91% | 1007 hPa | 0 mm | - | 50 W/m² | - |
| 1777809102 | 6.67° C | 91% | 1007.2 hPa | 0 mm | - | 60 W/m² | - |
| 1777808799 | 6.67° C | 91% | 1007.1 hPa | 0 mm | - | 52 W/m² | - |
| 1777808496 | 6.67° C | 91% | 1007.1 hPa | 0 mm | - | 55 W/m² | - |
| 1777808193 | 6.67° C | 91% | 1007.1 hPa | 0 mm | - | 29 W/m² | - |
| 1777807892 | 6.67° C | 91% | 1007.1 hPa | 0 mm | - | 28 W/m² | - |
| 1777807590 | 6.67° C | 91% | 1007.3 hPa | 0 mm | - | 34 W/m² | - |
| 1777807286 | 6.11° C | 91% | 1007.3 hPa | 0 mm | - | 37 W/m² | - |
| 1777806982 | 6.11° C | 91% | 1007.3 hPa | 0 mm | - | 35 W/m² | - |
| 1777806679 | 6.11° C | 91% | 1007.2 hPa | 0 mm | - | 42 W/m² | - |
| 1777806375 | 6.11° C | 91% | 1007.4 hPa | 0 mm | - | 26 W/m² | - |
| 1777806072 | 6.11° C | 91% | 1007.2 hPa | 0 mm | - | 27 W/m² | - |
| 1777805768 | 6.11° C | 91% | 1007.5 hPa | 0 mm | - | 21 W/m² | - |
| 1777805466 | 6.11° C | 91% | 1007.2 hPa | 0 mm | - | 18 W/m² | - |
| 1777805164 | 6.11° C | 91% | 1007.2 hPa | 0 mm | - | 23 W/m² | - |
| 1777804861 | 6.11° C | 91% | 1007.2 hPa | 0 mm | - | 17 W/m² | - |
| 1777804559 | 6.11° C | 91% | 1007.3 hPa | 0 mm | - | 15 W/m² | - |
| 1777804256 | 6.11° C | 91% | 1007.2 hPa | 0 mm | - | 14 W/m² | - |
| 1777803953 | 6.11° C | 91% | 1007.3 hPa | 0 mm | - | 14 W/m² | - |
| 1777803650 | 6.11° C | 91% | 1007.4 hPa | 0 mm | - | 9 W/m² | - |
* Rain latest hour (hover to see other rain measurements)
** Current wind speed in m/s (hover to see current wind gust speed)